カタログに戻る

STARLINK-30847

運用中通信VLEO
NORAD 58239·PAYLOAD·🇺🇸 United States

打ち上げ Nov 8, 2023 から Cape Canaveral Space Force Station

Loading…

次のパス (今後24時間)

TLE

最新Source: CelesTrak SupGP

元期: Sep 15, 2026, 02:33 UTC

1 58239C 23171K   26258.10673611  .00025057  00000+0  90747-3 0  2585
2 58239  42.9997 295.6939 0001424 256.9694  13.8582 15.27569333    16

AllMySatでSTARLINK-30847をリアルタイム追跡

Download on the App Store